Location: Newark
(50.0306°N, 2.3272°E)
Time: 18:12:29
(UTC+00:00)

A-11 Canister half - Pass Details

Date: 13 December 2019
Orbit: 1525 x 1684 km, 47.3° (Epoch: 20 January)

Event Time Altitude Azimuth Distance (km) Brightness Sun altitude
Rises 10:07:59 0° 284° (WNW) 4,942 11.3 13.7°
Reaches altitude 10° 10:11:14 10° 281° (W) 3,948 10.9 13.9°
Maximum altitude 10:21:03 58° 206° (SSW) 1,892 10.1 14.5°
Drops below altitude 10° 10:30:39 10° 131° (SE) 3,854 12.3 15.0°
Sets 10:33:46 0° 127° (SE) 4,817 12.5 15.2°
